TimeEST,TemperatureF,Dew PointF,Humidity,Sea Level PressureIn,VisibilityMPH,Wind Direction,Wind SpeedMPH,Gust SpeedMPH,PrecipitationIn,Events,Conditions,WindDirDegrees,DateUTC
12:15 AM,66.2,66.2,100,30.11,7.0,SSW,4.6,-,N/A,,Clear,200,2013-12-07 05:15:00
12:35 AM,66.2,66.2,100,30.10,7.0,SSW,5.8,-,N/A,,Clear,200,2013-12-07 05:35:00
12:55 AM,66.2,66.2,100,30.10,7.0,SSW,5.8,-,N/A,,Clear,200,2013-12-07 05:55:00
1:15 AM,66.2,66.2,100,30.10,7.0,SSW,5.8,-,N/A,,Clear,200,2013-12-07 06:15:00
1:35 AM,64.4,64.4,100,30.09,7.0,South,4.6,-,N/A,,Clear,190,2013-12-07 06:35:00
1:55 AM,64.4,64.4,100,30.09,7.0,SSW,4.6,-,N/A,,Clear,200,2013-12-07 06:55:00
2:15 AM,64.4,64.4,100,30.09,7.0,SSW,5.8,-,N/A,,Clear,200,2013-12-07 07:15:00
2:35 AM,66.2,66.2,100,30.09,7.0,SSW,5.8,-,N/A,,Clear,200,2013-12-07 07:35:00
2:55 AM,64.4,64.4,100,30.10,7.0,SSW,6.9,-,N/A,,Clear,200,2013-12-07 07:55:00
3:15 AM,66.2,66.2,100,30.10,10.0,SSW,4.6,-,N/A,,Clear,200,2013-12-07 08:15:00
3:35 AM,66.2,66.2,100,30.11,7.0,SSW,4.6,-,N/A,,Clear,210,2013-12-07 08:35:00
3:55 AM,66.2,66.2,100,30.11,7.0,SSW,5.8,-,N/A,,Clear,200,2013-12-07 08:55:00
4:15 AM,64.4,64.4,100,30.11,5.0,SSW,4.6,-,N/A,,Clear,210,2013-12-07 09:15:00
4:35 AM,64.4,64.4,100,30.11,7.0,SSW,5.8,-,N/A,,Clear,210,2013-12-07 09:35:00
4:55 AM,66.2,66.2,100,30.11,7.0,SSW,5.8,-,N/A,,Clear,200,2013-12-07 09:55:00
5:15 AM,66.2,66.2,100,30.11,7.0,SSW,5.8,-,N/A,,Clear,210,2013-12-07 10:15:00
5:35 AM,66.2,66.2,100,30.10,7.0,SSW,8.1,-,N/A,,Clear,200,2013-12-07 10:35:00
5:55 AM,66.2,66.2,100,30.11,7.0,SSW,6.9,-,N/A,,Clear,200,2013-12-07 10:55:00
6:15 AM,66.2,66.2,100,30.11,7.0,SSW,4.6,-,N/A,,Clear,210,2013-12-07 11:15:00
6:35 AM,64.4,64.4,100,30.12,7.0,SSW,4.6,-,N/A,,Clear,200,2013-12-07 11:35:00
6:55 AM,64.4,64.4,100,30.13,7.0,SW,3.5,-,N/A,,Clear,220,2013-12-07 11:55:00
7:15 AM,64.4,64.4,100,30.13,7.0,SSW,4.6,-,N/A,,Clear,210,2013-12-07 12:15:00
7:35 AM,66.2,66.2,100,30.14,7.0,SSW,4.6,-,N/A,,Clear,210,2013-12-07 12:35:00
7:55 AM,66.2,66.2,100,30.14,7.0,SW,4.6,-,N/A,,Mostly Cloudy,230,2013-12-07 12:55:00
8:15 AM,68.0,68.0,100,30.15,5.0,SW,5.8,-,N/A,,Overcast,220,2013-12-07 13:15:00
8:35 AM,68.0,68.0,100,30.16,7.0,SW,6.9,-,N/A,,Overcast,230,2013-12-07 13:35:00
8:55 AM,68.0,68.0,100,30.17,5.0,Calm,Calm,-,N/A,,Overcast,0,2013-12-07 13:55:00
9:15 AM,69.8,69.8,100,30.17,7.0,Calm,Calm,-,N/A,,Overcast,0,2013-12-07 14:15:00
9:35 AM,69.8,69.8,100,30.18,7.0,WSW,5.8,-,N/A,,Overcast,240,2013-12-07 14:35:00
9:55 AM,69.8,69.8,100,30.19,7.0,West,6.9,-,N/A,,Overcast,260,2013-12-07 14:55:00
10:15 AM,71.6,69.8,94,30.19,7.0,West,6.9,-,N/A,Rain,Light Rain,270,2013-12-07 15:15:00
10:35 AM,69.8,69.8,100,30.20,7.0,Calm,Calm,-,N/A,,Overcast,0,2013-12-07 15:35:00
10:55 AM,69.8,69.8,100,30.20,7.0,West,4.6,-,N/A,,Overcast,270,2013-12-07 15:55:00
11:15 AM,69.8,69.8,100,30.20,5.0,Calm,Calm,-,N/A,,Overcast,0,2013-12-07 16:15:00
11:35 AM,62.6,62.6,100,30.21,3.0,North,15.0,21.9,0.07,Rain,Heavy Rain,10,2013-12-07 16:35:00
11:55 AM,55.4,55.4,100,30.22,5.0,North,12.7,19.6,0.13,Rain,Light Rain,10,2013-12-07 16:55:00
12:15 PM,53.6,53.6,100,30.23,4.0,North,11.5,19.6,N/A,,Drizzle,10,2013-12-07 17:15:00
12:35 PM,53.6,53.6,100,30.23,4.0,NNE,8.1,-,0.05,Rain,Rain,20,2013-12-07 17:35:00
12:55 PM,51.8,51.8,100,30.23,7.0,North,12.7,17.3,0.06,Rain,Light Rain,10,2013-12-07 17:55:00
1:15 PM,51.8,51.8,100,30.22,7.0,NNE,9.2,-,0.01,Rain,Rain,20,2013-12-07 18:15:00
1:35 PM,51.8,51.8,100,30.23,7.0,North,6.9,16.1,0.01,,Overcast,10,2013-12-07 18:35:00
1:55 PM,51.8,51.8,100,30.24,5.0,North,9.2,-,0.01,,Overcast,10,2013-12-07 18:55:00
2:15 PM,50.0,50.0,100,30.24,7.0,North,6.9,18.4,N/A,,Overcast,10,2013-12-07 19:15:00
2:35 PM,50.0,50.0,100,30.25,5.0,North,12.7,17.3,N/A,,Overcast,10,2013-12-07 19:35:00
2:55 PM,50.0,50.0,100,30.25,4.0,North,6.9,16.1,N/A,,Overcast,360,2013-12-07 19:55:00
3:15 PM,48.2,48.2,100,30.25,5.0,NNE,11.5,17.3,N/A,,Overcast,20,2013-12-07 20:15:00
3:35 PM,48.2,48.2,100,30.26,5.0,NNE,8.1,-,N/A,,Overcast,20,2013-12-07 20:35:00
3:55 PM,48.2,48.2,100,30.27,5.0,NNE,8.1,17.3,N/A,,Overcast,20,2013-12-07 20:55:00
4:15 PM,48.2,48.2,100,30.27,7.0,NNE,11.5,17.3,N/A,,Overcast,20,2013-12-07 21:15:00
4:35 PM,46.4,46.4,100,30.28,7.0,NNE,11.5,-,N/A,,Overcast,30,2013-12-07 21:35:00
4:55 PM,46.4,46.4,100,30.29,5.0,NNE,11.5,-,N/A,,Overcast,30,2013-12-07 21:55:00
5:15 PM,46.4,46.4,100,30.31,5.0,NNE,12.7,17.3,N/A,,Overcast,20,2013-12-07 22:15:00
5:35 PM,46.4,46.4,100,30.31,5.0,NNE,9.2,-,N/A,,Overcast,20,2013-12-07 22:35:00
5:55 PM,46.4,46.4,100,30.31,5.0,NNE,9.2,-,N/A,Rain,Light Rain,30,2013-12-07 22:55:00
6:15 PM,46.4,46.4,100,30.33,5.0,NE,9.2,-,0.02,Rain,Rain,40,2013-12-07 23:15:00
6:35 PM,44.6,44.6,100,30.33,7.0,North,5.8,-,0.05,Rain,Rain,10,2013-12-07 23:35:00
6:55 PM,44.6,44.6,100,30.34,7.0,NNE,9.2,-,0.07,Rain,Rain,20,2013-12-07 23:55:00
7:15 PM,44.6,44.6,100,30.35,7.0,NNE,8.1,-,N/A,Rain,Light Rain,30,2013-12-08 00:15:00
7:35 PM,44.6,44.6,100,30.35,7.0,NNE,10.4,-,0.01,Rain,Light Rain,20,2013-12-08 00:35:00
7:55 PM,44.6,44.6,100,30.36,7.0,NNE,11.5,-,0.01,,Light Drizzle,30,2013-12-08 00:55:00
8:15 PM,44.6,44.6,100,30.37,5.0,NNE,9.2,-,N/A,,Overcast,20,2013-12-08 01:15:00
8:35 PM,44.6,44.6,100,30.37,7.0,NE,9.2,-,N/A,,Overcast,50,2013-12-08 01:35:00
8:55 PM,44.6,44.6,100,30.37,7.0,NNE,11.5,-,N/A,,Overcast,20,2013-12-08 01:55:00
9:15 PM,44.6,44.6,100,30.38,7.0,NE,12.7,-,N/A,,Overcast,40,2013-12-08 02:15:00
9:35 PM,44.6,44.6,100,30.38,7.0,NE,12.7,-,N/A,,Overcast,40,2013-12-08 02:35:00
9:55 PM,44.6,44.6,100,30.39,7.0,NE,9.2,-,N/A,,Overcast,40,2013-12-08 02:55:00
10:15 PM,44.6,44.6,100,30.39,5.0,NNE,11.5,-,N/A,,Overcast,30,2013-12-08 03:15:00
10:35 PM,44.6,44.6,100,30.39,3.0,NE,10.4,-,N/A,,Overcast,40,2013-12-08 03:35:00
10:55 PM,44.6,44.6,100,30.38,5.0,NNE,13.8,19.6,N/A,Rain,Light Rain,30,2013-12-08 03:55:00
11:15 PM,42.8,42.8,100,30.39,7.0,NE,13.8,21.9,N/A,,Light Drizzle,40,2013-12-08 04:15:00
11:35 PM,42.8,42.8,100,30.39,7.0,NE,10.4,18.4,N/A,Rain,Rain,50,2013-12-08 04:35:00
11:55 PM,42.8,42.8,100,30.39,7.0,NE,6.9,-,0.01,Rain,Rain,50,2013-12-08 04:55:00